Location: CNYAC Observatory
(43.2150°N, 74.9500°W)
Time: 04:35:03
(UTC-04:00)

Cosmos 1975 Rocket - Visible Passes

Search period start: 27 April 2018 00:00
Search period end: 07 May 2018 00:00
Orbit: 603 x 634 km, 82.5° (Epoch: 26 April)

Date Brightness Start Highest point End Pass type
(mag) Time Alt. Az. Time Alt. Az. Time Alt. Az.
27 Apr 5.0 01:40:19 26° NNW 01:40:19 26° NNW 01:42:27 10° N visible
28 Apr 5.5 00:20:16 17° NE 00:20:16 17° NE 00:21:34 10° NNE visible
28 Apr 5.2 01:57:25 20° NW 01:57:25 20° NW 01:59:23 10° NNW visible
29 Apr 5.1 00:37:22 24° NNE 00:37:22 24° NNE 00:39:17 10° NNE visible
29 Apr 5.5 02:14:30 14° NW 02:14:30 14° NW 02:15:50 10° NNW visible
30 Apr 4.9 00:54:27 30° N 00:54:27 30° N 00:56:42 10° N visible
30 Apr 5.6 23:34:22 12° NE 23:34:22 12° NE 23:34:53 10° NE visible
01 May 4.9 01:11:31 28° NNW 01:11:31 28° NNW 01:13:53 10° N visible
01 May 5.2 23:51:26 19° NE 23:51:26 19° NE 23:53:04 10° NNE visible
02 May 5.2 01:28:34 21° NW 01:28:34 21° NW 01:30:47 10° NNW visible
03 May 4.7 00:08:28 29° NNE 00:08:28 29° NNE 00:10:45 10° NNE visible
03 May 5.6 01:45:36 14° NW 01:45:36 14° NW 01:47:10 10° NNW visible
04 May 4.5 00:25:29 36° N 00:25:29 36° N 00:28:09 10° N visible
04 May 5.4 23:05:22 14° ENE 23:05:22 14° ENE 23:06:26 10° NE visible
05 May 4.6 00:42:30 33° NNW 00:42:30 33° NNW 00:45:19 10° N visible
05 May 4.8 23:22:22 23° NE 23:22:22 23° NE 23:24:33 10° NNE visible
06 May 5.0 00:59:30 23° NW 00:59:30 23° NW 01:02:11 10° NNW visible
06 May 4.2 23:39:21 37° NE 23:39:21 37° NE 23:42:13 10° NNE visible
